Voltar ao catálogo

THORAD AGENA D DEB

LostSSO
NORAD 42519·DEBRIS·🇺🇸 United States

Lançado Apr 8, 1970 de Vandenberg Space Force Base

Loading…

Próximas Passagens (próximas 24 horas)

TLE

ObsoletoSource: Space-Track

Época: Feb 28, 2016, 09:43 UTC

1 42519U 70025RZ  16059.40509506  .00000435  00000-0  46890-3 0  9997
2 42519  99.4908 128.7091 0020317 311.8612  48.0398 13.79161476620729

Acompanhe THORAD AGENA D DEB em tempo real com AllMySat

Download on the App Store